Dost 1 — TCPI — position and weather

sailwx.info

Track history (hours):
 
Tides and Currents Weather Stations Pressure Air Temp Water Temp Dewpoint Dewpoint Depression Visibility Wind Speed Wind Dir Waves Ship Positions

Dost 1

Last reported at 2014-Jul-30 12:05 UTC. Time now 2014-Jul-31 21:39 UTC.
Position N 38°05' E 024°11'.

Length 115 m; draft 6.8 m.

Type: Cargo ship. MMSI: 271000303.

Date/timePositionNaut miles runAvg speedWind from/ knotsBaromVisibWave heightAir tempDewpointWater temp
2014-Jul-30 12:05N 38°05' E 024°11'712.0
2014-Jul-30 11:28N 37°58' E 024°13'1612.4
2014-Jul-30 10:11N 37°56' E 024°33'2612.5
2014-Jul-30 08:05N 38°10' E 025°01'912.6
2014-Jul-30 07:22N 38°15' E 025°10'1112.5
2014-Jul-30 06:29N 38°21' E 025°22'1212.6
2014-Jul-30 05:33N 38°28' E 025°35'1312.9
2014-Jul-30 04:33N 38°35' E 025°48'  
2014-Jul-23 01:33N 40°58' E 028°58'270 9.2
2014-Jul-21 20:06N 43°16' E 034°12'611.6
2014-Jul-21 19:33N 43°19' E 034°19'1211.6
2014-Jul-21 18:33N 43°25' E 034°33'1211.6
2014-Jul-21 17:33N 43°30' E 034°48'1211.6
2014-Jul-21 16:33N 43°35' E 035°02'1611.6
2014-Jul-21 15:10N 43°42' E 035°22'711.8
2014-Jul-21 14:33N 43°45' E 035°31'1311.8
2014-Jul-21 13:25N 43°51' E 035°48'  
Track history (hours):
 
Tides and Currents Weather Stations Pressure Air Temp Water Temp Dewpoint Dewpoint Depression Visibility Wind Speed Wind Dir Waves Ship Positions

Dost 1

Last reported at 2014-Jul-30 12:05 UTC. Time now 2014-Jul-31 21:39 UTC.
Position N 38°05' E 024°11'.

Length 115 m; draft 6.8 m.

Type: Cargo ship. MMSI: 271000303.

Date/timePositionNaut miles runAvg speedWind from/ knotsBaromVisibWave heightAir tempDewpointWater temp
2014-Jul-30 12:05N 38°05' E 024°11'712.0
2014-Jul-30 11:28N 37°58' E 024°13'1612.4
2014-Jul-30 10:11N 37°56' E 024°33'2612.5
2014-Jul-30 08:05N 38°10' E 025°01'912.6
2014-Jul-30 07:22N 38°15' E 025°10'1112.5
2014-Jul-30 06:29N 38°21' E 025°22'1212.6
2014-Jul-30 05:33N 38°28' E 025°35'1312.9
2014-Jul-30 04:33N 38°35' E 025°48'  
2014-Jul-23 01:33N 40°58' E 028°58'270 9.2
2014-Jul-21 20:06N 43°16' E 034°12'611.6
2014-Jul-21 19:33N 43°19' E 034°19'1211.6
2014-Jul-21 18:33N 43°25' E 034°33'1211.6
2014-Jul-21 17:33N 43°30' E 034°48'1211.6
2014-Jul-21 16:33N 43°35' E 035°02'1611.6
2014-Jul-21 15:10N 43°42' E 035°22'711.8
2014-Jul-21 14:33N 43°45' E 035°31'1311.8
2014-Jul-21 13:25N 43°51' E 035°48'  

Dump ship's entire track history